This demonstration page uses our WeatherBlox Daily Observations layout. Learn more.

Left ArrowRight Arrow

30.21309, -93.2044

Hourly Observations for March 27, 2015

Temp ( °F °C ) Dew Point ( °F °C ) Humidity (%) Winds ( mph kmh ) Pressure ( in mb ) Visibility ( mi km ) Precip ( " mm )
12:15 am 00:15 Partly Cloudy 55 12.6 47 8.5 76 76 N 10 17 30.06 1018 10 16 0.00 0.00
12:35 am 00:35 Clear 54 12.4 46 8 75 75 N 8 13 30.06 1018 10 16 0.00 0.00
12:55 am 00:55 Clear 54 12 46 7.7 75 75 N 9 15 30.06 1018 10 16 0.00 0.00
1:15 am 01:15 Clear 53 11.6 46 7.5 76 76 N 7 11 30.06 1018 10 16 0.00 0.00
1:35 am 01:35 Clear 52 11.2 46 7.6 79 79 N 8 13 30.06 1018 10 16 0.00 0.00
1:55 am 01:55 Clear 51 10.6 46 7.6 82 82 NNW 7 11 30.06 1018 10 16 0.00 0.00
2:15 am 02:15 Clear 51 10.5 46 7.6 82 82 N 6 9 30.06 1018 10 16 0.00 0.00
2:35 am 02:35 Clear 51 10.5 46 7.6 82 82 N 7 11 30.06 1018 10 16 0.00 0.00
2:55 am 02:55 Clear 50 10 46 7.5 85 85 N 8 13 30.06 1018 10 16 0.00 0.00
3:15 am 03:15 Clear 49 9.7 46 7.5 86 86 N 8 13 30.06 1018 10 16 0.00 0.00
3:35 am 03:35 Clear 49 9.5 45 7.3 86 86 N 6 9 30.09 1019 10 16 0.00 0.00
3:55 am 03:55 Clear 49 9.2 45 7.2 87 87 NNW 6 9 30.09 1019 10 16 0.00 0.00
4:15 am 04:15 Clear 48 8.9 45 7.1 89 89 NNW 5 7 30.09 1019 10 16 0.00 0.00
4:35 am 04:35 Clear 47 8.5 45 7.1 91 91 NW 3 6 30.09 1019 10 16 0.00 0.00
4:55 am 04:55 Clear 47 8.4 45 7.2 92 92 NW 5 7 30.09 1019 10 16 0.00 0.00
5:15 am 05:15 Clear 46 8 44 6.9 93 93 NW 3 6 30.09 1019 10 16 0.00 0.00
6:00 am 06:00 Mostly Clear 45 7 45 7 100 100 NNW 8 13 30.09 1019 10 16 0.00 0.00
6:50 am 06:50 Mostly Clear 46 8 45 7 93 93 NNW 8 13 30.09 1019 10 16 0.00 0.00
7:50 am 07:50 Mostly Sunny 46 8 45 7 93 93 NNW 8 13 30.12 1020 10 16 0.00 0.00
8:45 am 08:45 Mostly Sunny 52 11 46 8 82 82 NNW 8 13 30.12 1020 10 16 0.00 0.00
9:50 am 09:50 Mostly Sunny 55 13 45 7 67 67 NNW 6 9 30.15 1021 10 16 0.00 0.00
10:50 am 10:50 Mostly Sunny 59 15 45 7 59 59 NNW 6 9 30.15 1021 10 16 0.00 0.00
11:50 am 11:50 Mostly Sunny 63 17 45 7 52 52 WSW 8 13 30.15 1021 10 16 0.00 0.00
12:50 pm 12:50 Mostly Sunny 64 18 43 6 46 46 WSW 9 15 30.12 1020 10 16 0.00 0.00
1:50 pm 13:50 Mostly Sunny 70 21 39 4 33 33 NNW 12 19 30.09 1019 10 16 0.00 0.00
2:50 pm 14:50 Mostly Sunny 72 22 39 4 31 31 WNW 23 37 30.09 1019 10 16 0.00 0.00
3:45 pm 15:45 Mostly Sunny 73 23 39 4 29 29 NW 15 24 30.06 1018 10 16 0.00 0.00
4:50 pm 16:50 Mostly Sunny 75 24 39 4 27 27 NW 16 26 30.06 1018 10 16 0.00 0.00
5:50 pm 17:50 Mostly Sunny 73 23 39 4 29 29 NW 14 22 30.06 1018 10 16 0.00 0.00
6:50 pm 18:50 Mostly Sunny 72 22 39 4 31 31 WNW 10 17 30.06 1018 10 16 0.00 0.00
7:50 pm 19:50 Mostly Clear 68 20 41 5 38 38 WNW 6 9 30.06 1018 10 16 0.00 0.00
8:50 pm 20:50 Mostly Clear 63 17 45 7 52 52 NNW 6 9 30.09 1019 10 16 0.00 0.00
10:15 pm 22:15 Clear 60 15.3 43 6.1 54 54 N 5 7 30.15 1021 10 16 0.00 0.00
10:35 pm 22:35 Clear 60 15.3 42 5.6 53 53 N 5 7 30.15 1021 10 16 0.00 0.00
10:55 pm 22:55 Clear 59 14.9 42 5.5 54 54 Calm 30.15 1021 10 16 0.00 0.00
11:15 pm 23:15 Clear 59 15 42 5.5 53 53 Calm 30.15 1021 10 16 0.00 0.00
11:35 pm 23:35 Clear 58 14.3 42 5.8 57 57 Calm 30.15 1021 10 16 0.00 0.00
11:55 pm 23:55 Clear 57 14.1 42 5.6 57 57 Calm 30.18 1022 10 16 0.00 0.00

Powered by AerisWeather